FW9167 Weather Reports


Display with metric or nautical units.
time (UTC)temp
F
wind
direction
speed
MPH
gust
MPH
rain 1hr
in
rain 24hr
in
rain mn
in
humidity
%
barometer
mb
20260508231602 73 295 4.0 9.0 0.00 0.00 0.00 24 1015.8
20260508224602 72 280 5.0 10.0 0.00 0.00 0.00 23 1015.7
20260508223102 72 302 4.0 14.0 0.00 0.00 0.00 28 1015.7
20260508221602 71 242 7.0 13.0 0.00 0.00 0.00 28 1015.6
20260508220104 72 301 1.0 10.0 0.00 0.00 0.00 26 1015.7
20260508214602 71 259 2.0 11.0 0.00 0.00 0.00 26 1015.8
20260508213102 72 266 5.0 17.0 0.00 0.00 0.00 26 1016.0
20260508211602 72 252 5.0 14.0 0.00 0.00 0.00 27 1016.1
20260508204603 72 248 9.0 18.0 0.00 0.00 0.00 27 1016.1
20260508203102 71 224 6.0 14.0 0.00 0.00 0.00 27 1016.5
20260508201605 70 236 9.0 15.0 0.00 0.00 0.00 29 1016.3
20260508194601 72 199 1.0 3.0 0.00 0.00 0.00 37 1016.6
20260508193102 69 37 2.0 4.0 0.00 0.00 0.00 36 1016.7
20260508191605 70 122 0.0 2.0 0.00 0.00 0.00 37 1016.8
20260508184602 68 120 0.0 7.0 0.00 0.00 0.00 35 1017.0
20260508183101 69 166 1.0 2.0 0.00 0.00 0.00 39 1017.2
20260508181602 67 135 0.0 3.0 0.00 0.00 0.00 41 1017.3
20260508180105 65 135 0.0 4.0 0.00 0.00 0.00 39 1017.4
20260508174602 65 335 0.0 4.0 0.00 0.00 0.00 38 1017.3
20260508173102 64 122 2.0 3.0 0.00 0.00 0.00 41 1017.4
20260508171601 63 143 0.0 5.0 0.00 0.00 0.00 42 1017.6
20260508164602 61 111 0.0 3.0 0.00 0.00 0.00 45 1017.7
20260508163102 61 39 1.0 2.0 0.00 0.00 0.00 46 1017.7
20260508161602 59 142 0.0 2.0 0.00 0.00 0.00 47 1017.7
20260508154601 57 169 0.0 3.0 0.00 0.00 0.00 54 1017.6
20260508153102 58 210 0.0 1.0 0.00 0.00 0.00 57 1017.6
20260508151602 57 163 1.0 2.0 0.00 0.00 0.00 54 1017.7
20260508144601 57 141 0.0 2.0 0.00 0.00 0.00 56 1017.6
20260508143101 56 54 0.0 1.0 0.00 0.00 0.00 56 1017.5
20260508141605 51 327 0.0 0.0 0.00 0.00 0.00 61 1017.5
20260508134602 49 324 0.0 0.0 0.00 0.00 0.00 62 1017.4
20260508131602 43 331 0.0 3.0 0.00 0.00 0.00 70 1017.2
20260508124601 40 344 0.0 1.0 0.00 0.00 0.00 73 1016.9
20260508123102 39 334 1.0 2.0 0.00 0.00 0.00 75 1016.8
20260508121602 42 338 0.0 2.0 0.00 0.00 0.00 69 1016.7
20260508114602 41 335 1.0 3.0 0.00 0.00 0.00 72 1016.6
20260508113102 40 10 0.0 3.0 0.00 0.00 0.00 73 1016.7
20260508111602 41 340 0.0 2.0 0.00 0.00 0.00 71 1016.6
20260508104602 42 293 1.0 2.0 0.00 0.00 0.00 69 1016.6
20260508103101 42 335 0.0 2.0 0.00 0.00 0.00 70 1016.5
20260508101602 43 360 0.0 2.0 0.00 0.00 0.00 68 1016.3
20260508094601 47 296 0.0 1.0 0.00 0.00 0.00 60 1016.2
20260508093102 49 314 0.0 3.0 0.00 0.00 0.00 57 1016.1
20260508091602 49 333 1.0 4.0 0.00 0.00 0.00 57 1016.0
20260508084602 51 325 0.0 4.0 0.00 0.00 0.00 54 1016.0
20260508081602 51 335 0.0 2.0 0.00 0.00 0.00 56 1016.1
20260508080105 51 313 0.0 5.0 0.00 0.00 0.00 56 1016.0
20260508074601 51 349 1.0 4.0 0.00 0.00 0.00 56 1016.0
20260508073102 51 355 0.0 3.0 0.00 0.00 0.00 55 1015.9
20260508071602 53 340 0.0 4.0 0.00 0.00 0.00 53 1015.9
20260508064604 54 332 3.0 4.0 0.00 0.00 0.00 50 1015.8
20260508063101 53 329 3.0 7.0 0.00 0.00 0.00 52 1015.8
20260508061607 54 345 0.0 6.0 0.00 0.00 0.00 51 1015.7
20260508060104 55 334 3.0 8.0 0.00 0.00 0.00 49 1015.6
20260508051604 54 330 0.0 3.0 0.00 0.00 0.00 49 1015.4
20260508050103 54 333 0.0 2.0 0.00 0.00 0.00 48 1015.4
20260508044602 53 5 0.0 2.0 0.00 0.00 0.00 53 1015.3
20260508041602 57 325 0.0 4.0 0.00 0.00 0.00 43 1015.0
20260508034606 56 359 1.0 1.0 0.00 0.00 0.00 51 1014.8
20260508033103 59 19 0.0 3.0 0.00 0.00 0.00 48 1014.5
20260508031602 60 342 1.0 3.0 0.00 0.00 0.00 46 1014.4
20260508030103 63 11 1.0 2.0 0.00 0.00 0.00 45 1014.2
20260508024602 66 333 0.0 3.0 0.00 0.00 0.00 37 1014.0
20260508023102 71 41 1.0 5.0 0.00 0.00 0.00 32 1013.8
20260508021604 71 20 1.0 3.0 0.00 0.00 0.00 31 1013.7
20260508013102 72 267 3.0 9.0 0.00 0.00 0.00 24 1013.1
20260508011601 73 264 3.0 8.0 0.00 0.00 0.00 22 1013.1
20260508004601 75 256 12.0 12.0 0.00 0.00 0.00 24 1013.2
20260508003102 75 252 8.0 18.0 0.00 0.00 0.00 18 1013.3
20260508001601 75 269 6.0 12.0 0.00 0.00 0.00 20 1013.3
20260507234602 75 291 6.0 15.0 0.00 0.00 0.00 21 1013.4
20260507233103 75 248 11.0 16.0 0.00 0.00 0.00 23 1013.4